| time (UTC) | temp F | wind direction | speed MPH | gust MPH | rain 1hr in | rain 24hr in | rain mn in | humidity % | barometer mb |
| 20260504120149 | 56 | 79 | 4.0 | 11.0 | 0.00 | 0.00 | 0.00 | 78 | 1013.8 |
| 20260504110141 | 55 | 29 | 3.0 | 10.0 | 0.00 | 0.00 | 0.00 | 80 | 1013.7 |
| 20260504100138 | 55 | 46 | 4.0 | 11.0 | 0.00 | 0.00 | 0.00 | 80 | 1013.4 |
| 20260504090138 | 55 | 68 | 5.0 | 12.0 | 0.00 | 0.00 | 0.00 | 79 | 1013.1 |
| 20260504080146 | 54 | 71 | 5.0 | 12.0 | 0.00 | 0.00 | 0.00 | 83 | 1012.9 |
| 20260504070136 | 53 | 64 | 3.0 | 9.0 | 0.00 | 0.00 | 0.00 | 85 | 1012.3 |
| 20260504060137 | 53 | 25 | 4.0 | 9.0 | 0.00 | 0.00 | 0.00 | 85 | 1011.7 |
| 20260504043134 | 52 | 0 | 4.0 | 9.0 | 0.00 | 0.00 | 0.00 | 86 | 1011.0 |
| 20260504040132 | 52 | 355 | 4.0 | 10.0 | 0.00 | 0.00 | 0.00 | 86 | 1010.8 |
| 20260504033131 | 53 | 346 | 4.0 | 9.0 | 0.00 | 0.00 | 0.00 | 86 | 1010.7 |
| 20260504030131 | 53 | 19 | 3.0 | 9.0 | 0.00 | 0.00 | 0.00 | 86 | 1010.7 |
| 20260504023130 | 53 | 348 | 4.0 | 9.0 | 0.00 | 0.00 | 0.00 | 86 | 1010.8 |
| 20260504013129 | 53 | 333 | 3.0 | 7.0 | 0.00 | 0.00 | 0.00 | 86 | 1010.7 |
| 20260504010128 | 53 | 16 | 4.0 | 11.0 | 0.00 | 0.00 | 0.00 | 86 | 1010.5 |
| 20260504000128 | 53 | 36 | 5.0 | 11.0 | 0.00 | 0.00 | 0.00 | 86 | 1010.2 |
| 20260503233126 | 54 | 21 | 5.0 | 10.0 | 0.00 | 0.00 | 0.00 | 86 | 1010.1 |
| 20260503230130 | 55 | 355 | 4.0 | 9.0 | 0.00 | 0.00 | 0.00 | 86 | 1010.1 |
| 20260503213132 | 55 | 24 | 6.0 | 12.0 | 0.00 | 0.00 | 0.00 | 86 | 1009.5 |
| 20260503210122 | 56 | 15 | 4.0 | 11.0 | 0.00 | 0.00 | 0.00 | 85 | 1008.9 |
| 20260503203121 | 57 | 344 | 4.0 | 10.0 | 0.00 | 0.00 | 0.00 | 83 | 1008.6 |
| 20260503200122 | 58 | 327 | 5.0 | 10.0 | 0.00 | 0.00 | 0.00 | 80 | 1008.4 |
| 20260503193122 | 60 | 0 | 3.0 | 5.0 | 0.00 | 0.01 | 0.00 | 75 | 1007.8 |
| 20260503190122 | 61 | 324 | 3.0 | 7.0 | 0.00 | 0.05 | 0.00 | 70 | 1007.6 |
| 20260503183125 | 62 | 290 | 3.0 | 9.0 | 0.00 | 0.07 | 0.00 | 68 | 1007.2 |
| 20260503180120 | 64 | 277 | 6.0 | 11.0 | 0.00 | 0.07 | 0.00 | 64 | 1007.2 |
| 20260503173125 | 65 | 254 | 5.0 | 11.0 | 0.00 | 0.07 | 0.00 | 64 | 1007.1 |
| 20260503170120 | 65 | 0 | 6.0 | 12.0 | 0.00 | 0.07 | 0.00 | 65 | 1007.1 |
| 20260503160124 | 64 | 0 | 3.0 | 11.0 | 0.00 | 0.07 | 0.00 | 67 | 1007.1 |
| 20260503150122 | 65 | 239 | 5.0 | 14.0 | 0.00 | 0.07 | 0.00 | 62 | 1007.2 |
| 20260503140120 | 64 | 294 | 8.0 | 14.0 | 0.00 | 0.07 | 0.00 | 65 | 1007.2 |